[[{"header":{"parameterUnit":"m.s-1","parameterCategory":1,"la1":30.2992,"la2":30.254,"lo1":-89.0895,"lo2":-89.0443,"dy":0.0025,"dx":0.0025,"nx":19,"ny":19,"refTime":"2026-03-09T03:00:00:Z","depth":0,"parameterNumber":2,"parameterNumberName":"U-component_of_WINDS"},"data":[0,0,0,-1.1132,-1.1132,-1.113,-1.113,-1.1131,-1.1131,0,0,0,0,0,0,0,0,0,0,0,-1.1134,-1.1134,-1.1132,-1.1132,-1.113,-1.113,-1.1131,-1.1131,0,0,0,0,0,0,0,0,0,0,0,-1.1134,-1.1134,-1.1135,-1.1132,-1.113,-1.113,-1.1131,-1.1131,0,0,0,0,0,0,0,0,0,0,-1.1132,-1.1137,-1.1134,-1.1135,-1.1132,-1.113,-1.113,-1.1131,-1.1131,-1.1132,0,-1.1135,0,-1.1133,-1.1131,-1.1131,0,0,0,-1.113,-1.1137,-1.1134,-1.1135,-1.1132,-1.113,-1.113,-1.1131,-1.1131,-1.1132,-1.1135,-1.1135,-1.1133,-1.1131,-1.1131,-1.1149,-1.1149,0,0,-1.113,-1.1135,-1.1134,-1.1134,-1.1136,-1.113,-1.113,-1.1131,-1.1134,-1.1135,-1.1135,-1.1133,-1.1131,-1.1131,-1.1148,-1.1149,0,0,0,-1.1131,-1.1135,-1.1133,-1.1134,-1.1134,-1.113,-1.113,-1.1134,-1.1133,-1.1135,-1.1133,-1.1131,-1.1131,-1.1148,-1.1148,-1.1162,0,0,0,-1.1131,-1.1136,-1.1133,-1.1136,-1.1134,-1.1134,-1.1134,-1.1132,-1.1132,-1.1133,-1.1131,-1.1131,-1.1148,-1.1148,-1.1161,-1.1167,0,0,0,-1.1134,-1.1136,-1.1137,-1.1136,-1.1136,-1.1134,-1.1133,-1.1132,-1.1131,-1.1131,-1.1131,-1.1148,-1.1148,-1.116,-1.1166,-1.1172,0,0,0,-1.1137,-1.1149,-1.1137,-1.1149,-1.1136,-1.1142,-1.1133,-1.1137,-1.1138,-1.1131,-1.1148,-1.1148,-1.116,-1.1165,-1.1171,-1.1178,-1.1182,0,0,-1.1155,-1.1151,-1.1158,-1.1147,-1.1157,-1.1142,-1.1154,-1.115,-1.1145,-1.1147,-1.1148,-1.1161,-1.1165,-1.1172,-1.1201,-1.1204,0,0,0,-1.1165,-1.117,-1.1171,-1.1173,-1.1171,-1.1168,-1.1162,-1.1161,-1.1163,-1.1147,-1.1165,-1.1168,-1.1171,-1.1174,-1.1177,-1.1179,-1.115,-1.115,-1.115,-1.1197,-1.119,-1.12,-1.1193,-1.1194,-1.1188,-1.1188,-1.1184,-1.1177,-1.1181,-1.1182,-1.12,-1.1204,-1.1206,-1.1208,-1.1186,-1.1186,-1.1186,-1.1186,-1.1221,-1.1226,-1.1216,-1.1222,-1.1214,-1.1219,-1.1212,-1.1207,-1.1209,-1.12,-1.1202,-1.1192,-1.1209,-1.1211,-1.1187,-1.1186,-1.1186,-1.1186,-1.1186,-1.1241,-1.1242,-1.124,-1.1241,-1.1242,-1.1234,-1.1237,-1.123,-1.1223,-1.1226,-1.1225,-1.1224,-1.1222,-1.1226,-1.1226,-1.1226,-1.1226,-1.1226,-1.1226,-1.1261,-1.1259,-1.1262,-1.126,-1.1259,-1.1258,-1.1251,-1.125,-1.1247,-1.1241,-1.1241,-1.1232,-1.1212,-1.1207,-1.1227,-1.1227,-1.1227,-1.1227,-1.1227,-1.1287,-1.128,-1.1285,-1.1285,-1.1281,-1.1282,-1.1273,-1.1271,-1.1269,-1.1271,-1.1261,-1.1248,-1.1244,-1.1242,-1.1237,-1.1264,-1.1264,-1.1264,-1.1264,-1.1303,-1.13,-1.1303,-1.1302,-1.1301,-1.1293,-1.1298,-1.1292,-1.1285,-1.1283,-1.1278,-1.1272,-1.127,-1.1266,-1.1264,-1.1259,-1.1291,-1.1291,-1.1291,-1.1317,-1.1314,-1.132,-1.1313,-1.1309,-1.1306,-1.1309,-1.1308,-1.1299,-1.1292,-1.1281,-1.128,-1.1269,-1.1266,-1.1259,-1.1255,-1.1247,0,0]},{"header":{"parameterUnit":"m.s-1","parameterCategory":1,"la1":30.2992,"la2":30.254,"lo1":-89.0895,"lo2":-89.0443,"dy":0.0025,"dx":0.0025,"nx":19,"ny":19,"refTime":"2026-03-09T03:00:00:Z","depth":0,"parameterNumber":3,"parameterNumberName":"V-component_of_WINDS"},"data":[0,0,0,1.5504,1.5504,1.5543,1.5544,1.5593,1.5594,0,0,0,0,0,0,0,0,0,0,0,1.549,1.5491,1.5504,1.5504,1.5543,1.5544,1.5593,1.5594,0,0,0,0,0,0,0,0,0,0,0,1.549,1.5491,1.5491,1.5505,1.5543,1.5544,1.5593,1.5564,0,0,0,0,0,0,0,0,0,0,1.5526,1.5512,1.5491,1.5491,1.5505,1.5543,1.5544,1.5563,1.5566,1.5575,0,1.5582,0,1.5589,1.5597,1.5597,0,0,0,1.5506,1.5509,1.5522,1.5491,1.5505,1.5543,1.5526,1.5565,1.5568,1.5579,1.5583,1.5584,1.5589,1.5597,1.5598,1.5646,1.5646,0,0,1.5504,1.5497,1.5519,1.5524,1.5516,1.5525,1.5527,1.5567,1.557,1.5583,1.5586,1.559,1.5598,1.5598,1.5646,1.5646,0,0,0,1.5497,1.5495,1.5506,1.5522,1.5529,1.5526,1.5529,1.5568,1.5572,1.5586,1.5591,1.5598,1.5598,1.5645,1.5646,1.5647,0,0,0,1.5495,1.5491,1.5505,1.5501,1.5528,1.5549,1.5529,1.557,1.5574,1.5591,1.5598,1.5599,1.5645,1.5645,1.5647,1.5649,0,0,0,1.5488,1.549,1.5495,1.5501,1.5517,1.5548,1.5555,1.5571,1.5577,1.5597,1.5599,1.5645,1.5645,1.5646,1.5649,1.5661,0,0,0,1.5479,1.5495,1.5495,1.5515,1.5517,1.5549,1.5554,1.5578,1.5596,1.5598,1.5645,1.5646,1.5646,1.5648,1.566,1.567,1.5674,0,0,1.5495,1.5497,1.5509,1.551,1.554,1.5543,1.5574,1.5596,1.5605,1.5632,1.5633,1.5647,1.5648,1.5661,1.5694,1.5696,0,0,0,1.5512,1.5521,1.5531,1.5547,1.5565,1.5581,1.56,1.5609,1.5632,1.5617,1.5655,1.5656,1.5664,1.5669,1.5671,1.5679,1.5647,1.5647,1.5647,1.5524,1.5535,1.5557,1.5574,1.559,1.561,1.5625,1.5641,1.5646,1.5655,1.5663,1.5681,1.5687,1.5689,1.5697,1.5669,1.5669,1.5669,1.5669,1.5549,1.5564,1.5574,1.5598,1.561,1.5632,1.5654,1.5657,1.568,1.5675,1.5683,1.5677,1.5691,1.5699,1.5669,1.5669,1.5669,1.5669,1.5669,1.5559,1.5568,1.5579,1.5606,1.5626,1.5643,1.5665,1.5675,1.5685,1.5692,1.5703,1.5703,1.5705,1.5697,1.5697,1.5697,1.5697,1.5697,1.5697,1.5564,1.5576,1.5593,1.5616,1.563,1.5649,1.5672,1.5686,1.5705,1.5711,1.5711,1.5717,1.569,1.5684,1.5698,1.5698,1.5698,1.5698,1.5698,1.5585,1.5583,1.5609,1.5623,1.5652,1.5673,1.5687,1.5715,1.5728,1.574,1.5745,1.5724,1.5726,1.5724,1.5719,1.5741,1.5741,1.5741,1.5741,1.5593,1.5596,1.5627,1.5648,1.5671,1.5687,1.572,1.5739,1.5759,1.5769,1.5768,1.5762,1.5759,1.5763,1.576,1.5756,1.5787,1.5787,1.5787,1.5608,1.5614,1.5638,1.5657,1.5682,1.5704,1.5735,1.5762,1.5784,1.579,1.5777,1.5775,1.5766,1.5762,1.5766,1.5762,1.5753,0,0]}]]